SCP
0 0 0 0 0 0 0 0 0 0 0 0 0 0 0 0 0 0 0 0 0 0 0 0 0 1 1 1 1 0 0 0 0 0 0 0 0 0 0 0 0 0 0 0
0 0 0 0 0 0 0 0 0 0 0 0 0 0 0 0 0 0 0 0 0 0 0 0 0 1 1 1 1 1 0 0 0 0 0 0 0 0 0 0 0 0 0 0
0 0 0 0 0 0 0 0 0 0 0 0 0 0 0 0 0 0 0 0 0 0 0 0 0 0 1 1 1 1 0 0 0 0 0 0 0 0 0 0 0 0 0 0
0 0 0 0 0 0 0 0 0 0 0 0 0 0 0 0 0 0 0 0 0 0 0 0 0 0 0 1 1 1 1 1 1 0 0 0 0 0 0 0 0 0 0 0
0 0 0 0 0 0 0 0 0 0 0 0 0 0 0 0 0 0 0 0 0 0 0 0 0 0 0 1 1 1 1 1 1 1 1 1 0 0 0 0 0 0 0 0
0 0 0 0 0 0 0 0 0 0 0 0 0 0 0 0 0 0 0 0 0 0 0 0 0 0 0 1 1 1 1 1 1 1 1 1 1 1 1 1 1 1 0 0
0 0 0 0 0 0 0 0 0 0 0 0 0 0 0 0 0 0 0 0 0 0 0 0 0 1 1 1 1 1 1 1 1 1 1 1 1 1 1 1 1 1 0 0
0 0 0 0 0 0 0 0 0 0 0 0 0 0 0 0 0 0 0 0 0 0 0 0 1 1 1 1 1 1 1 1 1 1 1 1 1 1 1 1 1 1 0 1
0 0 0 0 0 0 0 0 0 0 0 0 0 0 0 0 0 0 0 0 0 0 0 0 1 1 0 0 1 1 1 1 1 1 1 1 1 1 1 1 1 1 1 1
0 0 0 0 0 0 0 0 0 0 0 0 0 0 0 0 0 0 0 0 0 0 0 0 0 1 1 1 1 1 1 1 1 1 1 1 1 1 1 1 1 1 1 1
0 0 0 0 0 0 0 0 0 0 0 0 0 0 0 0 0 0 0 0 0 0 0 0 0 0 1 1 1 1 1 1 1 1 1 1 1 1 1 1 1 1 1 1
0 0 0 0 0 0 0 0 0 0 0 0 0 0 0 0 0 0 0 0 0 0 0 0 0 0 1 1 1 1 1 1 1 1 1 1 1 1 1 1 1 1 1 1
0 0 0 0 0 0 0 0 0 0 0 0 0 0 0 0 0 0 0 0 0 0 0 0 0 0 1 1 1 1 1 1 1 1 1 1 1 1 1 1 1 1 1 1
0 0 0 0 0 0 0 0 0 0 0 0 0 0 0 0 0 0 0 0 0 0 0 0 0 0 1 1 1 1 1 1 1 1 1 1 1 1 1 1 1 1 1 1
0 0 0 0 0 0 0 0 0 0 0 0 0 0 0 0 0 0 0 0 0 0 0 0 0 0 1 1 1 1 1 1 1 1 1 1 1 1 1 1 1 1 1 1
0 0 0 0 0 0 0 0 0 0 0 0 0 0 0 0 0 0 0 0 0 0 0 0 0 0 1 1 1 1 1 1 1 1 1 1 1 1 1 0 0 0 0 0
0 0 0 0 0 0 0 0 0 0 0 0 0 0 0 0 0 0 0 0 0 0 0 0 0 1 1 1 1 1 1 1 1 1 1 1 1 1 0 0 0 0 0 0
0 0 0 0 0 0 0 0 0 0 0 0 0 0 0 0 0 0 0 0 0 0 0 1 1 1 1 1 1 1 1 1 1 1 1 1 1 0 1 1 1 0 0 0
0 0 0 0 0 0 0 0 0 0 0 0 0 0 0 0 0 0 0 0 0 0 0 0 0 1 1 1 1 1 1 1 1 1 1 0 0 0 0 1 0 1 1 1
0 0 0 0 0 0 0 0 0 0 0 0 0 0 0 0 0 0 0 0 0 0 0 0 0 0 0 1 1 1 1 1 1 1 1 0 0 0 0 0 0 0 1 1
0 0 0 0 0 0 0 0 0 0 0 0 0 0 0 0 0 0 0 0 0 0 0 0 0 0 0 0 1 1 1 1 1 1 1 0 0 0 0 0 0 1 1 1
0 0 0 0 0 0 0 0 0 0 0 0 0 0 0 0 0 0 0 0 0 0 0 0 0 0 0 0 0 1 1 1 1 1 1 1 0 0 0 0 1 1 1 1
0 0 0 0 0 0 0 0 0 0 0 0 0 0 0 0 0 0 0 0 0 0 0 0 0 0 0 0 0 1 1 1 1 1 1 1 1 1 1 1 1 1 1 1
0 0 0 0 0 0 0 0 0 0 0 0 0 0 0 0 0 0 0 0 0 0 0 0 0 0 0 0 0 1 1 1 1 1 1 1 1 1 1 1 1 1 1 1
0 0 0 0 0 0 0 0 0 0 0 0 0 0 0 0 0 0 0 0 0 0 0 0 0 0 0 0 0 0 1 1 1 1 1 0 0 0 0 1 1 1 1 0
0 0 0 0 0 0 0 0 0 0 0 0 0 0 0 0 0 0 0 0 0 0 0 0 0 0 0 0 0 0 0 1 1 1 0 0 0 0 0 0 1 0 0 0
Wind_Speed
9 10 9 8 9 6 6 7 7 4 2 5 7 7 6 6 7 6 6 6 6 6 5 5 6 7 7 7 7 7 7 7 6 5 5 5 4 4 4 4 3 4 4 3
9 11 8 6 7 8 9 9 8 4 3 6 7 8 7 6 7 6 6 5 6 5 5 6 6 7 8 8 8 8 7 7 7 5 4 4 3 3 3 2 3 4 4 4
12 4 6 9 9 9 10 10 8 5 4 8 8 10 8 7 6 6 6 6 6 6 6 7 7 8 8 8 8 7 7 7 7 6 5 4 3 3 3 4 3 4 4 4
10 7 8 10 10 10 9 7 8 8 9 7 7 8 6 6 6 6 6 6 6 6 6 7 8 8 7 7 7 7 7 7 7 7 6 7 5 5 4 3 3 3 4 4
8 8 10 11 9 9 6 4 7 9 10 10 9 10 4 5 5 6 6 6 6 6 6 7 7 7 7 7 6 6 6 6 6 7 6 6 5 4 3 3 3 3 4 4
7 6 7 7 6 7 5 6 7 9 10 11 9 10 4 3 4 4 4 5 5 5 6 6 6 6 6 6 6 6 6 6 6 6 6 6 5 5 4 4 4 4 3 3
10 10 8 7 8 9 9 8 7 8 8 7 4 7 3 0 1 2 3 3 3 4 5 6 6 6 6 6 6 6 7 6 6 6 6 6 5 5 5 5 4 3 3 3
10 10 10 9 10 8 10 11 8 7 7 5 6 6 1 2 1 1 1 2 3 4 5 6 6 6 6 6 6 6 6 6 6 6 6 5 5 4 3 4 3 3 3 2
7 6 7 7 8 9 10 11 9 10 10 9 5 4 4 2 2 2 3 3 4 4 5 6 6 6 6 6 6 6 6 5 5 5 5 5 5 4 3 3 4 3 3 3
6 6 7 7 8 8 9 7 7 9 9 9 7 7 3 4 4 4 4 4 4 4 5 6 6 6 6 6 6 6 5 5 4 4 4 3 4 4 4 3 3 2 3 2
7 7 7 9 10 9 9 10 9 9 9 9 8 2 2 1 2 4 4 4 4 4 5 5 5 6 6 6 6 6 5 4 4 4 3 2 2 2 3 3 3 3 3 3
5 7 8 8 5 6 9 9 10 9 9 10 9 2 4 1 1 3 3 3 3 4 5 6 6 6 6 6 5 5 4 4 3 3 3 2 2 2 2 3 3 3 3 3
5 6 8 9 9 9 9 9 10 11 9 9 10 3 4 2 1 2 2 3 4 5 5 5 6 6 6 5 5 4 4 3 3 3 3 2 2 2 2 2 3 3 3 3
6 7 10 10 5 6 9 10 10 11 10 10 9 6 3 2 2 2 2 4 5 5 5 5 5 5 5 5 5 4 4 3 3 3 3 2 2 2 2 2 2 2 3 3
6 9 9 9 7 8 9 10 11 12 11 12 8 7 5 2 2 2 3 4 5 5 5 5 5 5 5 5 5 4 4 3 3 2 2 2 2 2 2 2 2 2 2 3
5 7 8 9 8 9 10 10 11 12 12 11 9 7 3 1 1 2 3 3 4 5 5 5 5 5 5 5 4 4 4 4 3 3 2 2 2 1 1 1 2 2 2 2
6 7 9 9 8 10 12 10 10 10 9 9 10 5 2 2 2 2 3 3 4 4 4 5 5 5 5 4 4 4 4 4 3 3 2 2 2 2 1 1 1 1 2 2
8 8 7 7 7 13 3 1 5 7 6 6 6 4 3 2 1 1 1 2 3 3 4 4 4 4 4 4 3 4 4 4 3 3 2 2 1 1 1 0 1 1 2 2
8 8 7 7 10 8 4 2 3 6 6 3 4 3 2 1 2 2 1 1 2 3 3 3 3 4 4 4 3 4 3 4 3 2 2 1 1 1 1 1 1 1 2 2
7 8 8 8 11 9 1 1 2 6 7 1 3 3 2 4 5 1 1 1 2 2 2 3 3 4 4 3 3 3 3 3 2 1 1 0 1 1 1 1 2 2 2 2
8 8 10 11 10 4 3 1 3 7 1 1 2 3 3 3 3 1 1 2 2 3 3 3 3 3 3 3 3 3 2 2 1 1 1 1 1 2 2 2 2 2 2 2
6 6 7 8 10 4 3 1 2 3 3 2 2 2 1 0 1 2 2 3 3 3 3 3 3 3 2 2 2 3 2 1 1 1 1 1 1 2 1 2 2 3 3 3
4 3 3 3 1 3 1 1 2 3 3 3 2 1 1 2 2 2 2 3 2 2 3 3 3 3 2 1 2 2 1 1 1 2 1 1 1 2 2 2 3 3 3 3
3 3 4 4 3 1 1 1 2 3 3 3 2 1 2 2 2 2 3 2 2 3 3 2 2 2 1 1 1 1 1 1 2 1 1 1 2 2 2 2 3 3 3 3
3 4 5 6 3 3 3 2 2 2 2 1 0 1 1 2 2 2 2 2 2 2 2 2 2 2 1 1 1 1 1 2 2 2 2 2 2 2 2 2 2 3 2 2
4 5 6 4 1 4 3 2 2 1 1 0 1 1 0 1 2 2 2 2 2 1 2 2 2 2 1 1 1 1 2 2 2 2 3 3 2 2 3 3 2 1 2 1
Wind_Direction
192 215 214 209 225 257 241 240 238 224 196 237 241 247 236 210 216 217 216 211 209 205 187 179 182 179 175 176 181 186 191 184 186 188 194 197 204 211 209 208 200 216 225 211
200 219 220 217 220 234 231 236 236 206 192 250 254 256 245 223 224 226 225 217 219 204 185 181 181 179 181 180 183 189 196 191 193 191 197 201 207 211 210 213 190 212 214 213
221 201 197 213 212 224 232 243 249 251 232 235 253 247 226 214 212 219 228 228 219 209 197 187 184 184 185 186 189 191 193 193 194 195 194 188 187 206 197 199 193 203 205 206
227 215 206 215 218 230 235 238 250 249 249 243 242 263 215 200 205 216 222 222 216 207 200 190 183 184 189 190 187 188 186 186 185 191 199 198 200 207 205 206 196 194 197 207
209 208 217 223 223 230 247 244 244 249 255 259 236 256 217 188 220 224 221 219 215 209 197 189 183 182 185 184 179 177 176 177 181 188 194 204 212 214 202 199 186 204 191 204
232 211 230 231 223 223 216 223 230 236 243 246 242 251 247 202 228 224 210 213 212 206 190 180 175 172 178 176 172 169 169 174 177 183 191 205 212 214 202 201 200 204 196 199
213 209 207 214 210 197 216 233 234 225 225 238 211 243 254 9 205 237 217 201 204 189 178 171 170 167 171 169 166 166 163 168 175 182 189 199 208 213 209 211 204 213 206 198
216 204 195 207 226 221 219 236 249 262 262 251 200 236 193 95 113 234 229 180 171 167 167 170 167 165 168 165 163 160 159 167 174 177 183 191 203 213 208 211 224 209 222 210
235 209 173 199 221 234 220 231 256 267 269 263 235 202 190 170 181 196 183 163 161 155 153 160 155 156 159 161 159 160 159 161 169 175 179 183 192 204 203 203 219 221 214 204
255 240 196 191 207 221 252 239 236 246 260 259 242 226 222 187 203 194 191 180 161 149 147 145 145 152 155 154 151 152 157 163 170 173 183 179 186 194 202 214 208 225 219 209
243 242 208 200 218 216 209 219 235 248 257 265 264 240 69 219 211 206 205 188 157 147 137 136 142 146 145 147 146 150 153 156 162 165 166 173 179 192 199 201 208 213 215 202
225 251 238 222 222 247 234 234 231 244 245 252 268 268 83 71 192 203 201 171 153 145 136 137 141 143 142 139 140 140 142 147 153 150 153 167 171 177 198 202 210 213 213 210
205 231 230 215 205 205 222 229 238 247 254 251 255 239 117 119 189 206 191 168 153 146 138 138 141 141 140 140 137 132 129 125 127 136 146 156 171 183 195 208 210 216 211 212
239 242 255 260 256 225 224 224 231 240 247 249 250 263 232 227 223 192 175 168 158 152 146 146 145 143 141 139 134 126 119 115 118 131 140 150 170 199 204 213 214 209 215 218
242 247 252 265 272 254 243 239 231 238 252 259 261 264 282 274 257 175 166 167 163 161 161 159 154 145 143 142 139 132 128 124 123 134 141 141 157 184 199 207 222 217 219 225
238 253 249 248 245 248 247 241 239 241 251 255 260 266 295 279 229 151 156 163 169 172 172 165 160 155 152 150 152 146 140 138 134 133 130 131 141 150 175 207 223 231 234 232
224 236 243 244 238 246 243 237 238 237 241 251 257 267 276 265 221 198 182 179 176 167 167 167 166 167 164 159 156 154 146 141 143 142 133 126 134 126 134 214 210 227 237 231
237 237 241 247 233 241 243 298 252 243 247 251 260 271 283 295 259 220 214 195 183 172 168 166 164 164 163 155 153 151 150 148 154 152 141 138 152 153 147 213 271 263 250 243
227 229 242 244 245 241 215 211 250 241 244 267 266 268 274 271 203 177 165 182 186 172 167 166 168 163 155 151 150 158 155 156 160 153 146 159 179 193 210 227 254 259 256 252
201 224 240 241 250 252 160 90 277 253 228 236 268 256 256 252 248 190 119 153 139 135 135 148 148 141 141 140 146 162 157 155 161 155 160 182 229 232 235 236 250 248 248 249
197 212 232 242 249 249 44 331 232 239 301 17 274 266 247 257 314 40 121 136 130 136 138 136 133 135 132 131 150 167 163 163 170 164 178 192 231 236 237 241 245 249 253 256
231 226 226 240 246 238 66 194 256 350 2 307 283 280 259 338 101 143 151 138 135 141 144 138 129 119 114 125 151 169 166 161 184 191 196 201 246 263 242 248 253 253 255 243
244 285 279 266 311 65 73 30 14 333 309 311 298 286 179 152 138 128 131 135 134 139 141 138 126 120 122 138 153 170 162 189 201 202 198 212 255 270 280 264 251 246 243 252
204 256 248 242 210 195 224 317 331 317 306 311 299 217 175 167 137 125 124 119 128 136 136 139 140 136 130 134 150 184 184 211 202 197 217 225 247 260 270 278 270 266 264 261
256 234 238 240 242 232 215 269 297 313 328 333 6 211 187 161 150 138 137 137 140 142 146 163 170 173 160 149 170 190 198 211 217 220 227 240 247 268 279 271 281 282 283 291
240 250 258 269 268 270 280 281 269 272 302 20 98 99 116 158 146 144 146 145 149 165 174 184 191 190 179 197 216 214 208 216 226 234 241 247 253 259 267 267 255 231 265 257